Temp
17 17 18 18 18 17 17 17 17 18 17 18 17 17 17 17 17 17 17 17 17 17 17 17 17 17 17 17 16 16 16 15 16 16 16 16 16 17 17 17 16 16 16
18 18 18 18 18 17 17 17 17 17 17 17 17 17 17 17 16 16 17 17 17 17 17 17 17 17 17 17 16 16 15 15 15 15 15 16 16 16 16 16 16 16 16
18 18 18 18 18 18 17 17 17 17 17 17 17 17 17 17 17 17 17 17 16 17 17 17 17 17 17 16 16 15 15 15 16 16 15 16 16 16 16 16 16 16 16
18 18 18 18 18 18 17 17 17 17 17 17 17 17 17 17 16 17 17 17 17 16 16 16 16 17 17 17 16 16 16 16 16 16 16 16 16 16 16 16 16 16 15
18 18 18 18 17 17 17 17 16 16 17 16 16 17 17 17 16 16 16 17 16 16 16 16 16 17 17 17 16 16 16 16 16 16 16 15 15 15 16 16 16 16 15
18 18 18 17 17 17 17 17 16 16 16 17 16 16 17 17 16 16 16 16 16 16 16 16 16 16 16 17 17 16 17 16 16 16 15 14 15 15 16 16 16 16 15
17 18 17 17 17 16 16 16 16 16 16 16 16 16 16 16 16 16 16 16 16 16 16 16 16 16 16 16 16 16 16 16 16 15 15 15 15 15 16 16 16 15 15
17 17 17 17 17 16 16 16 16 16 16 16 16 16 16 16 16 16 16 16 16 16 16 16 16 15 15 15 16 15 15 15 15 15 15 15 14 14 15 15 15 15 14
17 17 17 16 16 16 16 16 16 16 15 15 15 15 15 15 15 15 15 15 15 15 15 15 15 15 15 15 15 15 15 15 14 14 14 13 13 14 14 14 14 14 13
16 17 16 16 16 16 16 15 15 15 15 15 14 14 14 15 14 15 15 15 15 14 14 15 15 14 14 14 15 14 14 14 14 13 13 12 12 12 13 13 14 13 12
16 16 16 15 15 15 15 14 14 15 15 14 14 14 14 14 14 14 14 14 14 14 14 14 14 14 14 14 14 13 13 13 13 13 12 12 11 11 13 13 13 13 12
15 15 16 15 15 15 14 14 14 14 14 14 14 14 14 14 14 14 14 14 14 14 14 14 14 14 14 13 13 13 13 12 12 11 11 11 11 10 11 12 12 12 12
14 15 14 15 14 14 14 13 14 14 14 14 14 14 14 14 14 14 14 14 14 14 14 14 14 14 14 13 13 12 12 11 12 11 10 10 11 11 11 12 12 11 11
14 14 14 14 14 14 13 13 14 13 14 14 14 14 14 14 14 14 14 14 14 15 14 14 14 14 13 13 13 12 11 10 9 10 10 10 11 11 11 11 11 11 10
14 13 13 14 14 14 14 13 14 13 14 14 14 14 14 14 14 14 14 14 14 13 13 13 13 13 13 12 12 11 10 10 10 10 10 10 11 10 10 10 9 7 5
14 14 14 14 14 14 14 14 14 14 14 14 14 14 14 14 14 14 14 13 13 13 12 12 12 12 12 12 11 10 10 9 9 9 10 9 9 9 9 10 9 7 3
15 14 14 14 14 14 14 14 14 14 14 14 14 14 14 14 14 14 14 14 13 13 12 12 12 12 12 11 11 11 10 10 10 10 10 9 9 8 8 7 7 5 3
15 14 14 13 13 13 13 14 14 14 14 14 15 15 14 14 14 14 14 13 13 12 12 12 11 11 11 11 11 10 10 10 9 9 9 8 8 8 7 7 6 5 4
14 14 14 13 14 13 13 13 13 13 14 14 14 14 14 14 14 14 14 14 13 12 11 11 10 11 10 10 10 9 10 9 9 8 8 7 7 7 6 6 5 5 4
14 13 14 13 13 13 13 13 13 13 13 13 14 12 14 14 14 14 13 13 13 12 11 11 11 10 10 10 10 9 9 9 8 8 7 7 6 6 6 5 5 5 4
13 14 14 13 13 13 13 13 13 13 13 13 12 11 13 12 13 13 13 14 13 13 12 11 11 10 10 10 10 9 9 8 8 7 6 6 6 5 5 4 5 4 4
14 13 13 13 13 13 14 14 14 14 13 13 12 13 12 11 12 12 13 13 13 13 13 12 11 10 10 10 9 9 8 7 7 7 6 6 5 5 4 4 4 3 3
13 12 12 12 13 13 13 13 13 13 12 12 13 13 13 10 11 13 13 13 12 12 13 13 12 11 10 10 10 10 8 8 7 7 7 6 5 4 4 4 3 3 3
12 12 11 11 12 12 12 13 13 13 12 12 12 12 12 9 11 12 12 12 12 12 12 12 12 12 11 11 10 10 10 10 8 7 7 5 5 4 4 3 3 3 3
12 12 11 11 11 11 12 12 12 12 11 11 12 12 11 11 11 12 11 11 12 12 12 11 11 11 11 11 11 11 11 9 9 9 7 5 4 4 3 3 3 3 2
11 11 11 11 11 10 11 11 11 11 11 12 11 11 11 10 11 11 11 11 11 11 11 11 11 11 11 11 11 10 10 10 9 9 8 6 4 4 4 3 3 2 2
Height
1537 1538 1540 1541 1542 1544 1545 1546 1547 1548 1549 1549 1549 1550 1550 1551 1552 1553 1554 1554 1554 1554 1554 1554 1555 1555 1556 1556 1556 1555 1555 1555 1555 1554 1554 1553 1553 1553 1553 1552 1551 1550 1550
1534 1537 1540 1541 1542 1544 1546 1547 1548 1548 1550 1551 1551 1551 1552 1552 1554 1554 1555 1555 1556 1556 1556 1556 1557 1558 1558 1558 1558 1558 1557 1557 1556 1555 1555 1555 1555 1555 1554 1554 1553 1553 1552
1534 1537 1540 1542 1542 1544 1546 1547 1549 1549 1551 1552 1552 1552 1553 1554 1555 1556 1556 1557 1557 1558 1558 1559 1559 1559 1560 1560 1560 1560 1557 1557 1556 1556 1557 1556 1556 1556 1556 1556 1555 1554 1553
1533 1537 1540 1542 1544 1545 1547 1548 1549 1550 1551 1553 1553 1553 1554 1555 1556 1557 1558 1558 1559 1559 1560 1560 1560 1561 1562 1562 1562 1558 1559 1558 1557 1558 1558 1558 1558 1557 1558 1558 1557 1556 1555
1534 1537 1540 1543 1545 1546 1548 1548 1550 1551 1552 1554 1554 1555 1555 1556 1557 1558 1559 1559 1560 1561 1561 1561 1562 1562 1562 1562 1562 1560 1560 1559 1558 1559 1559 1560 1559 1558 1558 1558 1557 1556 1555
1533 1538 1541 1543 1545 1548 1549 1550 1551 1552 1553 1554 1555 1556 1557 1557 1558 1559 1560 1561 1561 1562 1562 1562 1563 1563 1563 1563 1562 1560 1560 1560 1560 1560 1561 1560 1560 1559 1558 1558 1557 1556 1555
1532 1537 1542 1544 1546 1548 1550 1551 1552 1553 1554 1555 1556 1557 1558 1559 1559 1560 1561 1562 1562 1562 1562 1563 1563 1564 1563 1562 1561 1561 1561 1561 1561 1560 1560 1561 1560 1560 1559 1557 1556 1555 1555
1533 1537 1541 1544 1546 1548 1550 1551 1553 1554 1555 1556 1557 1558 1559 1560 1560 1561 1562 1563 1563 1563 1563 1563 1564 1564 1563 1562 1562 1562 1562 1562 1562 1562 1562 1561 1560 1560 1558 1557 1555 1554 1553
1538 1539 1541 1543 1546 1549 1550 1551 1553 1555 1556 1557 1557 1558 1559 1560 1561 1562 1563 1564 1564 1564 1564 1564 1565 1565 1564 1563 1563 1563 1563 1562 1562 1562 1562 1562 1561 1559 1558 1557 1555 1554 1553
1538 1541 1543 1545 1547 1549 1551 1552 1554 1555 1555 1557 1557 1558 1559 1560 1562 1563 1563 1564 1564 1565 1565 1565 1565 1564 1564 1564 1564 1564 1563 1562 1562 1562 1562 1562 1562 1558 1557 1556 1555 1554 1552
1536 1541 1543 1546 1548 1550 1552 1553 1555 1555 1556 1557 1557 1558 1559 1560 1562 1563 1563 1563 1564 1564 1565 1565 1565 1565 1565 1565 1564 1564 1564 1563 1562 1563 1563 1562 1562 1559 1557 1555 1553 1552 1551
1534 1537 1542 1545 1548 1550 1552 1553 1555 1556 1557 1558 1558 1559 1559 1561 1562 1563 1563 1563 1563 1563 1563 1564 1565 1565 1565 1566 1566 1565 1564 1564 1563 1563 1563 1563 1562 1559 1557 1555 1552 1551 1550
1535 1539 1542 1544 1546 1550 1552 1554 1556 1557 1558 1558 1559 1559 1559 1560 1561 1562 1563 1562 1563 1563 1563 1564 1564 1565 1565 1565 1566 1566 1566 1565 1563 1563 1563 1563 1561 1559 1557 1554 1552 1550 1549
1538 1540 1542 1544 1546 1547 1551 1554 1556 1557 1558 1558 1558 1559 1559 1559 1560 1560 1561 1562 1562 1563 1563 1563 1564 1564 1565 1565 1565 1565 1564 1564 1564 1564 1563 1562 1561 1559 1557 1555 1552 1550 1548
1539 1540 1543 1545 1547 1549 1551 1554 1556 1558 1558 1559 1559 1559 1559 1559 1558 1559 1559 1560 1561 1561 1561 1562 1563 1564 1564 1564 1564 1563 1564 1565 1565 1565 1564 1563 1562 1559 1557 1556 1553 1552 1550
1538 1542 1543 1546 1548 1550 1552 1553 1555 1557 1557 1558 1558 1558 1558 1558 1557 1558 1558 1559 1560 1560 1559 1560 1562 1563 1563 1564 1563 1564 1565 1566 1567 1567 1565 1564 1562 1560 1559 1556 1555 1553 1553
1539 1542 1544 1545 1547 1550 1552 1553 1553 1554 1557 1557 1557 1557 1556 1557 1557 1555 1557 1557 1557 1558 1557 1559 1561 1562 1564 1565 1564 1566 1565 1567 1568 1569 1566 1565 1562 1562 1560 1558 1556 1554 1553
1536 1541 1544 1546 1548 1549 1553 1553 1552 1553 1555 1555 1556 1555 1556 1555 1555 1555 1556 1555 1555 1556 1557 1560 1561 1561 1563 1564 1564 1566 1567 1568 1568 1569 1569 1566 1564 1563 1561 1559 1558 1556 1554
1534 1538 1541 1544 1546 1549 1551 1554 1553 1553 1553 1554 1555 1555 1555 1555 1555 1555 1556 1554 1555 1557 1558 1560 1562 1563 1563 1566 1565 1567 1569 1569 1569 1571 1570 1568 1566 1564 1563 1561 1561 1558 1556
1533 1537 1540 1542 1544 1546 1549 1551 1552 1553 1552 1553 1553 1556 1553 1555 1555 1555 1555 1554 1555 1558 1559 1562 1563 1564 1565 1567 1568 1567 1572 1571 1572 1573 1572 1570 1568 1566 1564 1563 1561 1560 1557
1532 1534 1539 1540 1542 1544 1547 1549 1553 1553 1553 1553 1554 1554 1554 1555 1555 1556 1556 1555 1556 1557 1559 1562 1564 1564 1566 1567 1568 1569 1571 1574 1573 1573 1573 1571 1569 1567 1564 1563 1560 1560 1557
1528 1532 1538 1540 1542 1544 1546 1549 1551 1552 1554 1555 1556 1555 1553 1555 1555 1555 1555 1557 1558 1558 1559 1561 1562 1563 1565 1567 1567 1570 1572 1574 1574 1575 1575 1572 1570 1569 1566 1562 1561 1559 1556
1525 1529 1536 1539 1542 1544 1546 1548 1550 1551 1553 1554 1555 1554 1554 1556 1555 1554 1556 1557 1559 1559 1560 1559 1562 1563 1564 1568 1567 1568 1570 1571 1574 1576 1575 1572 1571 1571 1566 1565 1561 1559 1556
1523 1529 1536 1539 1540 1543 1544 1547 1549 1550 1552 1553 1554 1554 1555 1557 1556 1555 1557 1559 1561 1561 1560 1561 1563 1564 1565 1566 1566 1567 1567 1567 1572 1575 1576 1572 1571 1569 1567 1564 1563 1558 1555
1521 1526 1532 1536 1539 1541 1542 1545 1547 1549 1551 1552 1553 1554 1557 1557 1557 1557 1559 1560 1561 1562 1562 1563 1563 1564 1566 1565 1565 1566 1566 1568 1569 1570 1572 1573 1570 1569 1567 1565 1563 1559 1555
1520 1524 1527 1530 1536 1539 1540 1542 1545 1547 1549 1551 1552 1553 1556 1557 1557 1557 1560 1561 1562 1563 1564 1564 1564 1566 1565 1566 1567 1567 1567 1569 1569 1568 1570 1570 1568 1568 1567 1565 1562 1558 1553
Wind_Speed
22 20 16 18 19 19 18 17 17 16 16 17 17 17 17 16 15 15 15 15 16 16 17 17 17 18 18 18 19 20 20 18 16 20 19 19 18 18 16 15 14 14 13
26 21 18 19 19 19 18 18 17 17 16 16 16 16 16 15 14 14 16 16 16 16 16 16 17 18 18 18 18 18 16 16 14 11 15 17 16 16 16 15 14 13 13
26 22 19 19 19 19 19 19 18 17 16 16 16 16 16 15 15 15 15 15 15 15 15 15 15 16 16 15 14 13 11 12 9 9 12 16 15 15 14 13 13 13 13
26 22 20 18 18 19 19 18 17 16 15 15 15 16 16 15 14 14 14 14 14 14 14 14 14 14 14 13 12 5 8 9 7 7 10 10 12 13 12 11 9 9 9
27 23 20 19 18 18 17 17 16 15 14 13 14 14 15 14 14 13 13 13 12 13 13 12 12 12 12 11 6 3 5 10 12 6 7 9 9 10 10 10 8 8 7
28 23 20 19 18 17 16 15 14 14 14 14 14 14 14 14 13 13 12 12 11 11 11 11 11 10 9 8 6 2 2 7 10 7 6 6 6 7 9 10 8 7 7
28 24 21 18 17 16 14 14 14 15 14 14 14 14 14 14 13 13 12 12 11 11 11 10 9 8 7 6 4 3 4 6 6 5 5 2 2 5 8 10 9 7 8
26 24 21 18 16 15 15 15 15 14 14 15 15 15 14 14 14 13 12 11 11 11 10 9 9 8 6 4 3 4 7 8 6 6 3 0 5 7 9 10 8 8 8
19 21 21 19 18 16 16 15 15 15 15 16 15 15 14 13 12 12 11 11 10 9 8 7 8 7 5 4 4 4 7 8 6 2 3 5 6 8 10 9 10 9 10
15 17 19 18 18 16 16 16 16 17 17 17 15 14 12 12 12 10 9 9 9 8 7 6 6 5 3 3 3 6 7 7 7 5 7 7 8 10 10 11 12 10 12
17 20 19 18 16 15 15 17 17 16 16 14 13 11 10 9 12 9 8 8 7 8 8 6 6 4 5 7 4 4 7 8 6 7 11 12 12 10 11 13 10 15 16
23 24 19 17 16 15 16 18 18 15 13 10 8 9 9 9 6 4 8 8 7 8 5 3 3 3 4 5 4 5 6 6 5 8 5 6 4 9 13 14 13 14 13
25 24 21 22 23 19 19 17 14 12 10 8 8 7 5 5 6 7 7 6 4 3 3 1 3 2 1 4 6 9 7 2 3 2 5 6 7 11 13 14 13 12 11
24 25 24 26 24 20 16 13 12 12 9 8 10 10 8 8 8 9 8 5 4 4 5 5 2 1 1 5 6 7 10 8 8 6 7 9 10 12 12 13 14 13 13
26 26 23 21 19 16 12 13 11 9 6 5 6 7 8 9 10 10 10 9 9 8 9 7 6 5 2 2 6 5 5 8 7 7 8 9 11 13 13 14 15 16 16
27 26 24 21 18 17 16 14 12 10 8 7 7 7 9 10 10 11 11 9 8 9 11 10 9 6 4 4 7 7 10 11 9 10 10 11 14 16 16 16 17 17 18
27 27 25 24 22 18 18 15 15 12 10 8 8 8 10 8 7 8 8 7 7 8 10 12 10 7 4 6 11 13 13 13 12 13 14 14 17 19 19 20 21 20 18
28 26 25 23 21 18 16 16 15 13 9 7 6 7 8 7 7 7 5 7 8 11 12 13 13 11 8 5 13 15 13 15 16 17 18 17 18 19 19 20 21 20 21
26 25 25 23 21 19 19 16 15 11 8 6 5 5 5 4 4 4 5 6 10 14 15 16 14 10 12 14 16 15 14 16 18 16 18 19 20 21 22 21 20 20 23
25 25 25 24 22 20 19 16 12 9 7 8 7 8 6 3 3 3 5 6 9 12 15 16 14 16 17 16 15 14 11 14 13 12 15 16 18 19 21 20 21 21 24
27 27 26 25 24 21 21 16 13 11 9 9 10 9 8 5 5 5 5 7 10 12 14 14 13 13 16 17 17 15 13 10 8 9 12 13 15 18 18 17 18 20 23
27 27 26 24 22 20 17 18 16 13 10 8 8 7 7 7 7 7 7 8 9 10 11 12 13 16 17 20 18 17 12 10 7 8 6 8 9 12 11 12 17 20 23
29 27 26 25 22 21 19 19 18 16 12 9 8 10 9 9 9 10 9 10 11 11 11 11 10 15 22 21 19 8 10 6 13 10 8 5 9 6 5 10 15 18 24
32 27 27 25 24 24 21 20 18 15 12 9 8 7 10 13 10 10 9 9 8 8 9 10 11 12 15 19 19 13 9 12 9 8 2 6 5 3 4 9 13 20 26
35 30 28 27 25 25 22 20 19 18 16 11 10 11 10 10 10 9 9 9 8 8 9 10 11 10 11 13 12 12 11 14 7 6 9 10 4 4 6 9 14 21 23
36 32 31 29 29 27 24 22 20 17 15 14 13 13 13 12 12 11 11 11 11 11 11 11 11 11 11 10 10 9 8 8 8 7 8 9 7 1 7 9 15 21 21
Wind_Direction
143 136 139 135 132 129 125 120 113 105 100 98 97 99 102 106 108 98 93 95 98 97 96 95 96 95 97 101 99 90 83 75 72 71 68 62 59 53 52 53 55 57 56
139 138 140 136 133 130 127 120 112 106 99 95 95 96 98 102 102 97 96 96 96 97 98 99 100 101 102 102 97 86 73 66 65 77 68 63 54 51 49 50 53 54 53
139 138 139 138 136 133 128 121 115 107 101 96 94 95 98 99 99 99 98 97 96 96 97 97 98 99 102 101 93 76 67 51 47 81 85 71 63 51 39 35 40 45 46
140 140 139 139 137 133 129 124 116 109 102 98 95 95 98 100 100 99 98 96 95 94 93 93 93 93 96 105 104 92 67 29 46 79 82 73 74 62 45 26 20 27 32
141 141 139 138 135 133 131 126 119 110 104 100 97 96 98 101 103 103 101 98 94 92 89 87 87 88 91 102 104 52 32 34 72 112 80 71 58 57 31 15 7 5 2
141 142 141 139 137 135 132 126 120 113 107 102 100 99 98 99 100 101 100 99 96 90 86 86 86 86 92 103 109 61 7 49 80 104 95 82 49 48 17 7 351 347 348
144 146 145 141 137 134 131 125 121 115 109 104 101 101 100 98 97 96 96 95 93 93 93 91 89 90 88 91 107 70 26 29 59 135 143 95 38 23 1 357 346 353 352
148 149 147 142 137 134 130 126 122 117 110 106 104 103 102 102 98 97 96 95 94 93 92 93 90 84 86 85 88 46 29 36 59 107 126 37 39 13 0 353 353 351 347
153 155 151 146 143 139 134 129 125 118 112 111 110 110 109 105 101 100 96 92 89 86 82 80 77 72 70 63 47 29 36 64 75 48 36 33 27 16 5 3 4 360 348
161 164 156 151 145 142 137 131 125 124 129 126 121 122 111 114 103 107 104 99 94 87 81 78 81 82 62 12 44 30 31 59 67 73 58 63 47 22 6 356 339 341 347
163 168 161 152 145 141 137 132 132 139 140 136 134 131 121 122 116 99 107 107 106 98 83 70 77 60 54 55 60 57 65 50 57 78 83 77 22 359 345 345 350 345 341
162 165 162 156 143 140 142 141 146 148 146 144 137 128 135 125 114 105 110 111 119 117 93 83 46 22 359 44 22 14 10 30 65 100 87 356 37 345 345 343 343 336 343
157 156 146 140 139 138 143 147 151 155 154 160 160 162 147 140 133 137 143 141 133 98 104 350 22 20 43 357 8 358 344 345 104 94 67 30 8 355 357 354 2 5 360
158 155 156 149 152 156 158 161 152 154 153 172 180 170 178 174 182 199 213 219 193 199 205 173 167 13 355 334 327 323 331 106 94 81 57 28 0 9 17 17 18 22 23
167 164 164 162 165 161 164 158 169 181 196 201 190 183 198 207 205 217 229 226 222 211 228 209 171 162 211 345 328 334 98 101 86 62 48 32 27 33 36 35 34 40 41
173 173 169 167 170 176 179 179 192 219 220 229 223 224 226 230 229 235 232 227 228 224 223 214 186 177 155 38 93 100 95 87 76 57 46 43 36 33 32 30 32 43 50
178 176 178 178 180 184 197 201 201 209 218 232 239 237 232 231 232 232 236 231 221 187 187 176 160 153 136 93 99 97 85 76 72 61 53 47 40 33 30 28 28 39 43
175 176 177 182 180 180 186 190 200 207 213 211 219 218 214 201 208 221 203 187 168 167 161 164 153 151 142 100 104 86 79 73 60 48 43 41 39 36 29 30 29 26 18
180 187 188 183 180 180 186 200 207 197 176 169 185 192 196 201 204 200 172 170 158 167 158 156 151 160 135 113 101 85 80 73 53 44 42 40 39 34 29 29 29 21 15
182 181 185 180 181 186 195 199 196 193 177 157 162 177 148 161 151 180 167 158 160 171 168 162 155 143 134 121 113 105 90 76 62 45 47 39 38 32 27 27 22 16 13
187 188 193 186 186 194 195 190 192 192 184 166 171 166 152 152 135 137 143 144 154 170 178 177 172 161 154 146 137 125 119 103 82 64 55 47 37 33 29 22 16 12 7
191 189 189 191 191 191 188 193 193 189 184 170 175 168 152 161 142 138 131 146 149 154 159 178 188 176 165 170 153 139 125 111 111 105 67 49 40 43 34 17 9 5 358
194 187 191 191 195 195 195 199 193 188 189 187 195 185 178 178 156 146 149 156 159 153 153 142 147 183 182 178 180 167 157 154 150 119 56 50 70 73 35 8 2 356 351
195 192 195 198 202 203 204 205 209 201 212 239 225 212 197 177 167 150 151 147 159 148 140 137 137 144 179 186 184 211 216 185 172 187 121 97 77 61 32 5 352 352 347
202 196 197 201 209 211 211 211 216 231 243 227 204 194 189 176 163 152 153 149 147 141 134 130 131 139 153 157 173 154 139 168 180 165 136 140 90 56 3 339 340 342 345
207 206 208 207 211 209 210 218 227 226 213 210 204 194 188 174 163 157 154 156 148 141 136 130 127 130 124 130 131 132 135 131 111 99 102 112 135 115 321 318 335 342 350